#timestamp,LO_Frequency,Hit 
1502748015.7,286046996.5,N
1502748035.5,286046997.8,N
1502748055.3,286047002.3,N
1502748075.2,286047003.4,N
1502748095.9,286047007.5,N
1502748115.7,286047004.8,N
1502748135.6,286047005.9,N
1502748155.4,286047007.2,N
1502748175.2,286047005.2,N
1502748195.1,286047003.2,N
1502748196.0,286047003.2,N
1502748215.8,286046999.8,N
1502748235.6,286047002.2,N
1502748255.5,286047004.3,N
1502748275.3,286047002.4,N
1502748295.1,286047000.2,N
1502748315.8,286047002.6,N
1502748335.7,286047001.0,N
1502748355.5,286047002.8,N
1502748375.3,286047000.1,N
1502748395.2,286047000.1,N
1502748415.9,286047000.2,N
1502748435.7,286047000.2,N
1502748455.6,286047000.4,N
1502748475.4,286047000.7,N
1502748495.2,286047000.2,N
1502748515.1,286046999.2,N
1502748516.0,286046999.2,N
1502748535.8,286046998.1,N
1502748555.6,286046996.5,N
1502748575.5,286046997.4,N
1502748595.3,286046995.7,N
1502748615.1,286046996.3,N
1502748635.9,286046993.5,N
1502748655.7,286046994.2,N
1502748675.5,286046991.8,N
1502748695.3,286046994.1,N
1502748715.2,286046992.4,N
1502748735.0,286046994.0,N
1502748735.9,286046994.0,N
1502748755.7,286046994.8,N
1502748775.6,286046991.7,N
1502748795.4,286046992.3,N
1502748815.2,286046993.0,N
1502748835.1,286046992.4,N
1502748836.0,286046992.4,N
1502748855.8,286046992.9,N
1502748875.6,286046991.9,N
1502748895.5,286046994.0,N
1502748915.3,286046993.9,N
1502748935.1,286046994.7,N
1502748955.9,286046995.9,N
1502748975.7,286046997.3,N
1502748995.5,286046997.2,N
1502749015.4,286046998.3,N
1502749035.2,286046998.4,N
1502749055.0,286046996.6,N
1502749055.9,286046996.6,N
1502749075.8,286046997.3,N
1502749095.6,286046999.2,N
1502749115.4,286047000.7,N
1502749135.2,286046996.8,N
1502749155.1,286046996.8,N
1502749156.0,286046996.8,N
1502749175.8,286046995.4,N
1502749195.6,286046995.8,N
1502749215.5,286046997.5,N
1502749235.3,286046996.1,N
1502749255.1,286046996.5,N
1502749275.9,286046999.3,N
1502749295.7,286046994.9,N
1502749315.5,286046997.7,N
1502749335.4,286046996.9,N
1502749355.2,286046995.0,N
1502749375.0,286046997.7,N
1502749375.9,286046997.7,N
1502749395.8,286046997.6,N
1502749415.6,286046999.0,N
1502749435.4,286046998.1,N
1502749455.3,286047000.8,N
1502749475.1,286046999.0,N
1502749476.0,286046999.0,N
1502749495.8,286046999.2,N
1502749515.7,286046996.7,N
1502749535.5,286047000.3,N
1502749555.3,286046999.7,N
1502749575.1,286046998.4,N
1502749595.9,286046998.9,N
1502749615.7,286046999.6,N
1502749635.5,286046999.2,N
1502749655.4,286046998.6,N
1502749675.2,286047000.2,N
1502749695.0,286046999.8,N
1502749695.9,286046999.8,N
1502749715.8,286047002.7,N
1502749735.6,286047003.4,N
1502749755.4,286047001.8,N
1502749775.3,286047003.5,N
1502749795.1,286047003.6,N
1502749796.0,286047003.6,N
1502749815.8,286047000.2,N
1502749835.7,286047000.1,N
1502749855.5,286047002.6,N
1502749875.3,286047002.2,N
1502749895.2,286047000.0,N
1502749915.9,286046998.1,N
1502749935.7,286046999.3,N
1502749955.5,286046998.6,N
1502749975.4,286047000.5,N
1502749995.2,286047000.3,N
1502750015.0,286047002.6,N
1502750015.9,286047002.6,N
1502750035.8,286047002.4,N
1502750055.6,286047003.7,N
1502750075.4,286047007.4,P
1502750095.3,286047005.3,N
1502750115.1,286047005.7,N
1502750135.8,286047003.3,N
1502750155.7,286047003.8,N
1502750175.5,286047002.5,N
1502750195.3,286047002.4,N
1502750215.2,286046998.1,N
1502750235.9,286046998.5,N
1502750255.7,286046998.9,N
1502750275.6,286046998.8,N
1502750295.4,286046996.8,N
1502750315.2,286046995.7,N
1502750335.1,286046995.9,N
1502750336.0,286046995.9,N
1502750355.8,286046997.3,N
1502750375.6,286046997.7,N
1502750395.5,286046997.7,N
1502750415.3,286046997.8,N
1502750435.1,286046995.6,N
1502750455.9,286046997.2,N
1502750475.7,286046995.4,N
1502750495.5,286046996.7,N
1502750515.3,286046999.2,N
1502750535.2,286047000.4,N
1502750555.0,286047001.9,N
1502750555.9,286047001.9,N
1502750575.7,286047004.3,N
1502750595.6,286047000.4,N
1502750615.4,286047007.5,N
1502750635.2,286047005.7,N
1502750655.1,286047005.3,N
1502750656.0,286047005.3,N
1502750675.8,286047005.7,N
1502750695.6,286047005.4,N
1502750715.5,286047006.0,N
1502750735.3,286047005.3,N
1502750755.1,286047005.1,N
1502750775.9,286047003.0,N
1502750795.7,286047002.9,N
1502750815.5,286047006.0,N
1502750835.3,286047003.6,N
1502750855.2,286047002.5,N
1502750875.0,286047003.9,N
1502750875.9,286047003.9,N
1502750895.7,286047003.6,N
1502750915.6,286047003.5,N
1502750935.4,286047001.1,N
1502750955.2,286046999.3,N
1502750975.1,286047000.7,N
1502750976.0,286047000.7,N
1502750995.8,286047000.2,N
1502751015.6,286047000.2,N
1502751035.5,286047002.5,N
1502751055.3,286047000.4,N
1502751075.1,286047002.2,N
1502751095.9,286046999.8,N
1502751115.7,286047000.8,N
1502751135.5,286046999.8,N
1502751155.4,286047001.9,N
1502751175.2,286047002.2,N
1502751195.0,286047001.7,N
1502751195.9,286047001.7,N
1502751215.8,286047004.4,N
1502751235.6,286047001.5,N
1502751255.4,286047002.7,N
1502751275.2,286047000.0,N
1502751295.1,286047000.0,N
1502751296.0,286047000.0,N
1502751315.8,286047000.8,N
1502751335.6,286047001.1,N
1502751355.5,286047000.4,N
1502751375.3,286047000.1,N
1502751395.1,286047000.5,N
1502751415.9,286046999.7,N
1502751435.7,286047002.8,N
1502751455.5,286047000.2,N
1502751475.4,286047003.6,P
1502751495.2,286047002.0,N
1502751515.0,286047004.3,P
1502751515.9,286047004.3,P
1502751535.8,286046999.8,N
1502751555.6,286047001.2,N
1502751575.4,286046999.4,N
1502751595.3,286046998.5,N
